Location: Fontevrault
(47.1823°N, 0.0493°E)
Time: 10:35:06
(UTC+00:00)

Cosmos 1758 - Pass Details

Date: 16 June 2021
Orbit: 539 x 561 km, 82.5° (Epoch: 03 August)

Event Time Altitude Azimuth Distance (km) Brightness Sun altitude
Rises 20:38:05 0° 353° (N) 2,719 7.8 -6.0°
Reaches altitude 10° 20:40:17 10° 356° (N) 1,819 6.8 -6.3°
Maximum altitude 20:44:15 64° 79° (E) 603 3.4 -6.7°
Drops below altitude 10° 20:48:10 10° 161° (SSE) 1,797 5.4 -7.2°
Enters shadow 20:48:49 - 163° (SSE) 2,061 5.7 -7.3°
